This is the latest recevied weather packets stored in our database for station/object 4S6DRJ-13. If no packets are shown the sender has not sent any weather packets the latest 10 day(s).
| Time | Temp. | Humidity | Pressure | Rain* | Wind** | Luminosity | Snow |
|---|---|---|---|---|---|---|---|
| 1778404664 | 30.56° C | 78% | 1002.6 hPa | 0 mm | 0.89 m/s, 201° | 334 W/m² | - |
| 1778404603 | 30° C | 78% | 1002.6 hPa | 0 mm | 1.79 m/s, 97° | 335 W/m² | - |
| 1778404542 | 30° C | 78% | 1002.4 hPa | 0 mm | 0 m/s | 330 W/m² | - |
| 1778404481 | 30° C | 78% | 1002.6 hPa | 0 mm | 0.89 m/s, 230° | 320 W/m² | - |
| 1778404420 | 30° C | 77% | 1002.5 hPa | 0 mm | 1.79 m/s, 29° | 301 W/m² | - |
| 1778404359 | 30° C | 77% | 1002.7 hPa | 0 mm | 1.79 m/s, 11° | 280 W/m² | - |
| 1778404298 | 30° C | 77% | 1002.7 hPa | 0 mm | 0.89 m/s, 168° | 268 W/m² | - |
| 1778404237 | 30.56° C | 77% | 1002.9 hPa | 0 mm | 0.89 m/s, 255° | 272 W/m² | - |
| 1778404177 | 30.56° C | 76% | 1002.7 hPa | 0 mm | 2.24 m/s, 260° | 281 W/m² | - |
| 1778404115 | 30.56° C | 76% | 1002.7 hPa | 0 mm | 1.79 m/s, 115° | 284 W/m² | - |
| 1778404054 | 30.56° C | 76% | 1002.9 hPa | 0 mm | 1.79 m/s, 286° | 294 W/m² | - |
| 1778403993 | 30.56° C | 76% | 1002.8 hPa | 0 mm | 1.34 m/s, 318° | 306 W/m² | - |
| 1778403932 | 30.56° C | 76% | 1002.8 hPa | 0 mm | 0.89 m/s, 295° | 318 W/m² | - |
| 1778403871 | 30.56° C | 76% | 1002.9 hPa | 0 mm | 0.89 m/s, 293° | 325 W/m² | - |
| 1778403810 | 30.56° C | 76% | 1002.9 hPa | 0 mm | 1.79 m/s, 245° | 331 W/m² | - |
| 1778403749 | 30.56° C | 75% | 1002.9 hPa | 0 mm | 1.79 m/s, 270° | 328 W/m² | - |
| 1778403688 | 30.56° C | 75% | 1002.8 hPa | 0 mm | 2.68 m/s, 205° | 319 W/m² | - |
| 1778403627 | 30.56° C | 76% | 1002.8 hPa | 0 mm | 1.79 m/s, 217° | 325 W/m² | - |
| 1778403566 | 30.56° C | 75% | 1003 hPa | 0 mm | 0.89 m/s, 245° | 321 W/m² | - |
| 1778403505 | 30.56° C | 76% | 1003.1 hPa | 0 mm | 0.89 m/s, 289° | 320 W/m² | - |
| 1778403444 | 30.56° C | 76% | 1003 hPa | 0 mm | 0.45 m/s, 310° | 330 W/m² | - |
| 1778403383 | 30.56° C | 75% | 1003 hPa | 0 mm | 1.34 m/s, 230° | 339 W/m² | - |
| 1778403321 | 30.56° C | 75% | 1003 hPa | 0 mm | 1.79 m/s, 308° | 349 W/m² | - |
| 1778403261 | 30.56° C | 75% | 1003 hPa | 0 mm | 1.34 m/s, 235° | 361 W/m² | - |
| 1778403200 | 30.56° C | 75% | 1002.9 hPa | 0 mm | 0.89 m/s, 255° | 400 W/m² | - |
* Rain latest hour (hover to see other rain measurements)
** Current wind speed in m/s (hover to see current wind gust speed)